Main page
METAR-TAF:

METAR-TAF

Airports :

Kalaleh, Iran

Kalaleh Airport

latitude: 37-22-60N, longitude: 55-27-07E, elevation: 130 m

Current weather observation

The report was made 49 minutes ago, at 04:00 UTC
Wind 14 kt from the East/Southeast
Temperature 20°C
Humidity 13%
Pressure 1007 hPa
Visibility 10 km or more
no clouds below 1500 m and no cumulonimbus

METAR: OINE 200400Z 12014KT CAVOK 20/M09 Q1007

Time: 08:19 (04:49 UTC)


TAF: missing

Weather observations and forecasts of more than 4000 airports (METAR and TAF reports).

The available stations are represented by yellow and red dots on the map.

Hover mouse over dot to see the name of the station.

Then click to see weather observations and forecasts.

To change the map : click on the green buttons with a black cross to zoom in, on the green button with a dash to zoom out, or on the green arrows for adjacent maps.


METAR-TAF: